This demonstration page uses our WeatherBlox Daily Observations layout. Learn more.

Left ArrowRight Arrow

39.51506, -84.39828

Hourly Observations for June 29, 2019

Temp ( °F °C ) Dew Point ( °F °C ) Humidity (%) Winds ( mph kmh ) Pressure ( in mb ) Visibility ( mi km ) Precip ( " mm )
12:15 am 00:15 Clear 72 22.3 69 20.8 91 91 N N/A 30.14 1021 10 16 N/A
12:35 am 00:35 Clear 71 21.8 69 20.8 94 94 N N/A 30.14 1021 10 16 N/A
12:55 am 00:55 Clear 70 21.2 69 20.4 95 95 N N/A 30.14 1021 7 11 N/A
1:15 am 01:15 Clear 70 21 69 20.3 96 96 NNW 5 7 30.15 1021 7 11 N/A
1:35 am 01:35 Clear 71 21.4 69 20.7 96 96 N N/A 30.15 1021 7 11 N/A
1:55 am 01:55 Clear with Mist and Fog 69 20.6 68 20 96 96 N N/A 30.15 1021 7 11 N/A
2:15 am 02:15 Clear with Mist and Fog 69 20.4 68 20 98 98 N N/A 30.14 1021 5 8 N/A
2:35 am 02:35 Clear 69 20.8 68 20.2 96 96 N N/A 30.13 1020 7 11 N/A
2:55 am 02:55 Clear with Mist and Fog 69 20.7 69 20.4 98 98 N N/A 30.13 1020 4 6 N/A
3:15 am 03:15 Clear with Mist and Fog 69 20.4 68 20.2 99 99 N N/A 30.13 1020 4 6 N/A
3:35 am 03:35 Mostly Cloudy with Mist and Fog 68 20.1 68 19.9 99 99 N N/A 30.12 1020 1 2 N/A
3:55 am 03:55 Clear with Mist and Fog 68 20 68 19.8 99 99 N N/A 30.13 1020 4 6 N/A
4:15 am 04:15 Clear with Mist and Fog 68 19.9 67 19.7 99 99 N 3 6 30.13 1020 7 11 N/A
4:35 am 04:35 Clear 68 19.9 67 19.7 99 99 N N/A 30.13 1020 7 11 N/A
4:55 am 04:55 Clear with Mist and Fog 68 19.8 67 19.4 98 98 NW 3 6 30.14 1020 7 11 N/A
5:15 am 05:15 Clear with Mist and Fog 67 19.7 67 19.4 98 98 N N/A 30.14 1020 5 8 N/A
5:35 am 05:35 Clear with Mist and Fog 67 19.6 67 19.4 99 99 N 3 6 30.14 1021 5 8 N/A
5:55 am 05:55 Clear with Mist and Fog 67 19.7 67 19.4 98 98 N N/A 30.15 1021 5 8 N/A
6:15 am 06:15 Sunny with Mist and Fog 68 19.8 67 19.4 98 98 N N/A 30.15 1021 7 11 N/A
6:35 am 06:35 Sunny with Mist and Fog 68 19.8 67 19.4 98 98 N N/A 30.15 1021 4 6 N/A
6:55 am 06:55 Sunny with Mist and Fog 68 20 67 19.7 98 98 N N/A 30.15 1021 4 6 N/A
7:15 am 07:15 Sunny with Mist and Fog 69 20.7 69 20.3 98 98 N N/A 30.16 1021 5 8 N/A
7:35 am 07:35 Sunny with Mist and Fog 71 21.8 70 21.1 96 96 N N/A 30.16 1021 7 11 N/A
7:55 am 07:55 Sunny 74 23.1 71 21.7 92 92 N N/A 30.16 1021 7 11 N/A
8:15 am 08:15 Sunny 75 24 71 21.7 87 87 WSW 3 6 30.16 1021 10 16 N/A
8:35 am 08:35 Sunny 77 24.9 71 21.8 83 83 SW 5 7 30.16 1021 10 16 N/A
8:55 am 08:55 Sunny 78 25.4 71 21.5 79 79 SW 3 6 30.16 1021 10 16 N/A
9:15 am 09:15 Sunny 79 26.1 71 21.4 75 75 SW 3 6 30.16 1021 10 16 N/A
9:35 am 09:35 Sunny 81 27 70 21.3 71 71 SSW 5 7 30.16 1021 10 16 N/A
9:55 am 09:55 Sunny 82 27.6 71 21.6 70 70 SW 6 9 30.16 1021 10 16 N/A
10:15 am 10:15 Sunny 83 28.2 71 21.9 69 69 SSW 6 9 30.15 1021 10 16 N/A
10:35 am 10:35 Sunny 85 29.2 71 21.9 65 65 SSW 8 13 30.14 1021 10 16 N/A
10:55 am 10:55 Sunny 85 29.6 71 21.8 63 63 SSW 7 11 30.13 1020 10 16 N/A
11:15 am 11:15 Sunny 86 30.2 70 21.3 59 59 WSW 8 13 30.13 1020 10 16 N/A
11:35 am 11:35 Sunny 87 30.6 71 21.8 59 59 W 9 15 30.13 1020 10 16 N/A
11:55 am 11:55 Partly Cloudy 88 31 71 21.6 57 57 W 10 17 30.13 1020 10 16 N/A
12:15 pm 12:15 Partly Cloudy 89 31.4 70 21.2 55 55 W 10 17 30.12 1020 10 16 N/A
12:35 pm 12:35 Partly Cloudy 89 31.8 70 21.1 53 53 W 12 19 30.11 1020 10 16 N/A
12:55 pm 12:55 Mostly Cloudy 89 31.8 69 20.7 52 52 W 9 15 30.11 1020 10 16 N/A
1:15 pm 13:15 Mostly Cloudy 89 31.9 70 21 52 52 W 9 15 30.11 1020 10 16 N/A
1:35 pm 13:35 Partly Cloudy 90 32.4 68 20 48 48 WSW 9 15 30.10 1019 10 16 N/A
1:55 pm 13:55 Sunny 91 32.5 69 20.4 49 49 W 9 15 30.09 1019 10 16 N/A
2:15 pm 14:15 Partly Cloudy 90 32 69 20.3 50 50 W 8 13 30.07 1018 10 16 N/A
2:35 pm 14:35 Sunny 91 32.5 67 19.7 47 47 WSW 12 19 30.06 1018 10 16 N/A
2:55 pm 14:55 Partly Cloudy 90 32.4 69 20.5 49 49 WSW 12 19 30.06 1018 10 16 N/A
3:15 pm 15:15 Partly Cloudy 91 32.8 69 20.5 48 48 W 9 15 30.06 1018 10 16 N/A
3:35 pm 15:35 Partly Cloudy 92 33.2 68 20.1 46 46 W 7 11 30.04 1017 10 16 N/A
3:55 pm 15:55 Partly Cloudy 90 32.3 68 19.9 48 48 WSW 12 19 30.05 1017 10 16 N/A
4:15 pm 16:15 Sunny 92 33.1 68 19.9 46 46 W 12 19 30.04 1017 10 16 N/A
4:35 pm 16:35 Partly Cloudy 92 33.6 69 20.5 46 46 WSW 10 17 30.03 1017 10 16 N/A
4:55 pm 16:55 Partly Cloudy 91 33 69 20.7 48 48 W 10 17 30.03 1017 10 16 N/A
5:15 pm 17:15 Sunny 91 32.9 68 20.1 47 47 WSW 6 9 30.02 1016 10 16 N/A
5:35 pm 17:35 Partly Cloudy 92 33.1 67 19.7 45 45 W 13 20 30.01 1016 10 16 N/A
5:55 pm 17:55 Sunny 91 32.9 67 19.7 46 46 W 9 15 30.01 1016 10 16 N/A
6:15 pm 18:15 Sunny 91 32.6 67 19.5 46 46 WSW 14 22 30.01 1016 10 16 N/A
6:35 pm 18:35 Sunny 90 32.4 67 19.7 47 47 WSW 8 13 30.00 1016 10 16 N/A
6:55 pm 18:55 Sunny 90 32.3 68 20 48 48 W 10 17 30.00 1016 10 16 N/A
7:15 pm 19:15 Sunny 89 31.9 69 20.5 51 51 W 6 9 30.00 1016 10 16 N/A
7:35 pm 19:35 Sunny 89 31.4 68 20.2 51 51 WSW 6 9 30.00 1016 10 16 N/A
7:55 pm 19:55 Sunny 87 30.6 69 20.3 54 54 WSW 6 9 30.00 1016 10 16 N/A
8:15 pm 20:15 Sunny 84 28.9 69 20.7 61 61 WSW 6 9 30.00 1016 10 16 N/A
8:35 pm 20:35 Sunny 83 28.1 71 21.8 69 69 SW 5 7 30.01 1016 10 16 N/A
8:55 pm 20:55 Sunny 80 26.6 73 22.5 78 78 WSW 5 7 30.02 1017 10 16 N/A
9:15 pm 21:15 Clear 78 25.6 72 22.2 82 82 WSW 5 7 30.01 1016 10 16 N/A
9:35 pm 21:35 Clear 78 25.6 71 21.5 78 78 WSW 5 7 30.02 1017 10 16 N/A
9:55 pm 21:55 Clear 80 26.4 69 20.8 71 71 WSW 6 9 30.03 1017 10 16 N/A
10:15 pm 22:15 Clear 79 26.3 69 20.4 70 70 WSW 7 11 30.03 1017 10 16 N/A
10:35 pm 22:35 Clear 80 26.6 69 20.3 68 68 WSW 7 11 30.03 1017 10 16 N/A
10:55 pm 22:55 Mostly Cloudy 81 27.4 68 20.1 64 64 W 9 15 30.04 1017 10 16 N/A
11:15 pm 23:15 Clear 80 26.7 69 20.3 68 68 W 9 15 30.03 1017 10 16 N/A
11:35 pm 23:35 Clear 80 26.4 68 20.2 69 69 W 10 17 30.03 1017 10 16 N/A
11:55 pm 23:55 Clear 79 26.1 68 20.2 70 70 W 8 13 30.03 1017 10 16 N/A

Powered by AerisWeather